DH6PF-10 Weather Reports


time (UTC)temp
F
wind
direction
speed
knots
gust
knots
rain 1hr
in
rain 24hr
in
rain mn
in
humidity
%
barometer
mb
20260506084746 51 90 0.0 0.0 0.00 0.00 0.00 99 997.0
20260506083746 51 101 0.0 0.0 0.00 0.00 0.00 99 997.0
20260506082746 51 144 1.7 1.7 0.00 0.00 0.00 99 997.0
20260506081746 51 204 0.0 0.0 0.00 0.00 0.00 99 997.0
20260506080746 51 114 1.7 1.7 0.00 0.00 0.00 99 997.0
20260506072746 51 192 0.0 0.0 0.00 0.00 0.00 99 997.0
20260506071746 50 192 0.0 0.0 0.00 0.00 0.00 99 997.0
20260506070746 51 78 0.0 0.0 0.00 0.00 0.00 99 997.0
20260506061746 50 66 1.7 1.7 0.00 0.00 0.00 99 996.0
20260506060746 51 102 0.0 0.0 0.00 0.00 0.00 99 996.0
20260506050746 51 66 0.0 0.0 0.00 0.00 0.00 99 997.0
20260506044746 50 66 0.0 0.0 0.00 0.00 0.00 99 996.0
20260506043746 50 66 1.7 1.7 0.00 0.00 0.00 99 997.0
20260506042746 51 90 0.0 0.0 0.00 0.00 0.00 99 997.0
20260506041746 50 90 0.0 0.0 0.00 0.00 0.00 99 997.0
20260506040746 51 90 0.0 0.0 0.00 0.00 0.00 99 997.0
20260506035746 51 90 0.0 0.0 0.00 0.00 0.00 99 997.0
20260506034746 51 90 0.0 0.0 0.00 0.00 0.00 99 997.0
20260506033746 51 90 0.0 0.0 0.00 0.00 0.00 99 997.0
20260506032746 50 90 0.0 0.0 0.00 0.00 0.00 99 996.0
20260506031746 50 90 0.0 0.0 0.00 0.00 0.00 99 997.0
20260506030746 51 114 0.0 0.0 0.00 0.00 0.00 99 997.0
20260506025746 51 114 0.0 0.0 0.00 0.00 0.00 99 997.0
20260506024746 51 114 0.0 0.0 0.00 0.00 0.00 99 997.0
20260506023746 51 114 0.0 0.0 0.00 0.00 0.00 99 997.0
20260506022746 51 132 0.0 0.0 0.00 0.00 0.00 99 997.0
20260506021746 51 132 0.0 0.0 0.00 0.00 0.00 99 997.0
20260506020746 51 114 0.0 0.0 0.00 0.00 0.00 99 997.0
20260506015746 51 114 0.0 0.0 0.00 0.00 0.00 99 997.0
20260506014746 51 114 0.0 0.0 0.00 0.00 0.00 99 997.0
20260506013746 51 212 0.0 0.0 0.00 0.00 0.00 99 998.0
20260506012746 51 138 0.0 0.0 0.00 0.00 0.00 99 997.0
20260506011746 51 235 0.0 0.0 0.00 0.00 0.00 99 997.0
20260506010746 51 144 0.0 0.0 0.00 0.00 0.00 99 997.0
20260506005746 51 144 0.0 0.0 0.00 0.00 0.00 99 997.0
20260506004746 51 144 0.0 0.0 0.00 0.00 0.00 99 998.0
20260506003746 51 146 0.0 0.0 0.00 0.00 0.00 99 998.0
20260506002746 51 120 0.0 0.0 0.00 0.00 0.00 99 998.0
20260506001746 51 198 1.7 1.7 0.00 0.00 0.00 99 998.0
20260506000746 51 210 0.0 0.0 0.00 0.00 0.00 99 998.0
20260505235746 51 114 0.0 0.0 0.00 0.00 0.00 99 998.0
20260505234746 51 198 0.0 0.0 0.00 0.00 0.00 99 998.0
20260505233746 51 144 0.0 0.0 0.00 0.00 0.00 99 998.0
20260505232746 51 114 0.0 0.0 0.00 0.00 0.00 99 998.0
20260505231746 52 168 0.0 0.0 0.00 0.00 0.00 99 998.0
20260505230746 51 78 0.9 0.9 0.00 0.00 0.00 99 998.0
20260505225746 52 162 0.0 0.0 0.00 0.00 0.00 99 998.0
20260505224746 52 162 0.0 0.0 0.00 0.00 0.00 99 998.0
20260505223746 52 132 0.0 0.0 0.00 0.00 0.00 99 998.0
20260505222746 52 90 0.9 0.9 0.00 0.00 0.00 99 998.0
20260505221746 52 66 0.0 0.0 0.00 0.00 0.00 99 998.0
20260505220746 52 54 0.0 0.0 0.00 0.00 0.00 99 998.0
20260505215746 52 218 0.0 0.0 0.00 0.00 0.00 99 998.0
20260505214746 53 126 0.0 0.0 0.00 0.00 0.00 99 999.0
20260505213746 53 90 0.0 0.0 0.00 0.00 0.00 99 998.0
20260505212746 53 66 0.0 0.0 0.00 0.00 0.00 99 998.0
20260505211746 53 192 0.0 0.0 0.00 0.00 0.00 99 999.0
20260505210746 53 173 0.0 0.0 0.00 0.00 0.00 99 998.0
20260505205746 53 96 0.0 0.0 0.00 0.00 0.00 99 998.0
20260505204746 53 78 0.0 0.0 0.00 0.00 0.00 99 999.0
20260505203746 53 150 0.0 0.0 0.00 0.00 0.00 99 999.0
20260505202746 53 294 1.7 1.7 0.00 0.00 0.00 99 999.0
20260505201746 53 210 0.0 0.0 0.00 0.00 0.00 99 998.0
20260505200746 53 126 0.0 0.0 0.00 0.00 0.00 99 998.0
20260505195746 53 78 0.0 0.0 0.00 0.00 0.00 99 998.0
20260505194746 53 54 0.0 0.0 0.00 0.00 0.00 99 998.0
20260505193746 54 60 1.7 1.7 0.00 0.00 0.00 99 998.0
20260505192746 54 162 0.9 0.9 0.00 0.00 0.00 99 998.0
20260505191746 54 222 0.9 0.9 0.00 0.00 0.00 99 998.0
20260505190746 54 198 0.0 0.0 0.00 0.00 0.00 99 998.0
20260505185746 54 146 0.0 0.0 0.00 0.00 0.00 99 998.0
20260505184746 54 120 1.7 1.7 0.00 0.00 0.00 99 998.0
20260505183746 54 282 0.9 0.9 0.00 0.00 0.00 99 998.0
20260505182746 54 294 0.0 0.0 0.00 0.00 0.00 99 998.0
20260505181746 55 120 0.0 0.0 0.00 0.00 0.00 99 998.0
20260505180746 55 102 0.0 0.0 0.00 0.00 0.00 99 998.0
20260505175746 55 204 0.0 0.0 0.00 0.00 0.00 99 998.0
20260505174746 55 192 1.7 1.7 0.00 0.00 0.00 99 998.0
20260505173746 55 348 1.7 1.7 0.00 0.00 0.00 99 998.0
20260505172746 56 214 0.9 0.9 0.00 0.00 0.00 99 998.0
20260505171746 56 90 1.7 1.7 0.00 0.00 0.00 99 998.0
20260505170746 56 78 0.0 0.0 0.00 0.00 0.00 99 998.0
20260505165746 56 78 1.7 1.7 0.00 0.00 0.00 98 998.0
20260505164746 56 84 0.9 0.9 0.00 0.00 0.00 98 998.0
20260505163746 57 114 4.3 4.3 0.00 0.00 0.00 98 998.0
20260505162746 57 108 0.9 0.9 0.00 0.00 0.00 98 998.0
20260505161746 57 90 0.0 0.0 0.00 0.00 0.00 98 998.0
20260505160746 57 48 1.7 1.7 0.00 0.00 0.00 98 998.0
20260505152746 58 61 0.0 0.0 0.00 0.00 0.00 96 999.0
20260505151746 58 61 0.9 0.9 0.00 0.00 0.00 96 999.0
20260505150746 58 61 1.7 1.7 0.00 0.00 0.00 95 999.0
20260505124746 62 36 0.9 0.9 0.00 0.00 0.00 84 999.0
20260505123746 61 78 0.9 0.9 0.00 0.00 0.00 87 1000.0
20260505122746 62 94 3.5 3.5 0.00 0.00 0.00 89 1000.0
20260505121746 61 89 1.7 1.7 0.00 0.00 0.00 90 1000.0
20260505120746 60 84 1.7 1.7 0.00 0.00 0.00 93 999.0
20260505115746 60 66 1.7 1.7 0.00 0.00 0.00 93 1000.0
20260505114746 59 66 0.0 0.0 0.00 0.00 0.00 94 1000.0
20260505113746 59 66 0.0 0.0 0.00 0.00 0.00 95 1000.0
20260505112746 59 66 1.7 1.7 0.00 0.00 0.00 94 1000.0
20260505111746 59 42 0.0 0.0 0.00 0.00 0.00 92 1000.0
20260505110746 59 42 0.0 0.0 0.00 0.00 0.00 92 1000.0
20260505101746 58 54 0.0 0.0 0.00 0.00 0.00 96 1000.0
20260505100746 58 108 0.0 0.0 0.00 0.00 0.00 97 1000.0
20260505095746 58 108 1.7 1.7 0.00 0.00 0.00 97 1000.0
20260505094746 58 84 0.0 0.0 0.00 0.00 0.00 97 1000.0
20260505093746 58 84 0.0 0.0 0.00 0.00 0.00 97 1000.0
20260505092746 58 84 0.0 0.0 0.00 0.00 0.00 95 1000.0
20260505091746 59 84 0.0 0.0 0.00 0.00 0.00 94 1001.0
20260505090746 59 84 0.0 0.0 0.00 0.00 0.00 94 1001.0
20260505085746 59 84 0.0 0.0 0.00 0.00 0.00 94 1001.0